Inquirer Daily News

Weather

Get conditions and forecasts for any City, State, ZIP code or Country:  
Trenton, NJ
on Monday, February 11, 2013

Monday
Previous Day Next Day
Daily Summary
 ActualAverageRecord
Temperature
Mean Temperature °F 33°F  
Max Temperature 48°F 41°F 68°F (2009)
Min Temperature 31°F 25°F -9°F (1899)
Degree Days
Heating Degree Days 25 32  
Month to date heating degree days 395 358  
Since 1 July heating degree days 3103 3304  
Cooling Degree Days 0 0  
Month to date cooling degree days 0 0  
Year to date cooling degree days 0 0  
Moisture
Dew Point 37°F   
Average Humidity 82    
Maximum Humidity 100    
Minimum Humidity 63    
Precipitation
Precipitation 0.26 in 0.09 in 1.60 in (1983)
Month to date precipitation 0.77 0.82  
Year to date precipitation 3.59 3.98  
Wind
Wind Speed 4 mph   
Max Wind Speed 14 mph   
Max Gust Speed 18 mph   
Visibility 4 miles   
Events Fog , Rain   

Key: T is trace of precipitation, MM is missing value
Source: NWS Daily Summary
Time(EST)TemperatureDew PointHumidity Pressure Visibility Wind DirectionWind SpeedGust SpeedPrecipitationEvents Conditions
12:53 AM 30.9°F 21.9°F 69% 30.29 in 10.0 miles SSW 4.6 mph - N/A   Clear
1:53 AM 32.0°F 24.1°F 73% 30.25 in 10.0 miles Calm Calm - N/A   Mostly Cloudy
2:53 AM 30.9°F 24.1°F 76% 30.22 in 10.0 miles East 3.5 mph - N/A   Overcast
3:53 AM 32.0°F 25.0°F 75% 30.19 in 10.0 miles Calm Calm - N/A   Overcast
4:53 AM 32.0°F 26.1°F 79% 30.15 in 10.0 miles Calm Calm - 0.00 in   Overcast
5:41 AM 32.0°F 28.4°F 87% 30.13 in 5.0 miles ESE 3.5 mph - 0.02 in   Overcast
5:53 AM 32.0°F 28.9°F 88% 30.11 in 6.0 miles East 4.6 mph - 0.02 in   Overcast
6:53 AM 33.1°F 32.0°F 96% 30.05 in 4.0 miles ENE 5.8 mph - 0.07 in Rain Rain
7:06 AM 33.8°F 32.0°F 93% 30.05 in 4.0 miles ENE 3.5 mph - 0.02 in Rain Light Rain
7:37 AM 33.8°F 33.8°F 100% 30.03 in 2.5 miles NE 3.5 mph - 0.07 in Rain Light Rain
7:53 AM 34.0°F 33.1°F 96% 30.01 in 1.8 miles NNE 3.5 mph - 0.08 in Rain Light Rain
8:15 AM 33.8°F 32.0°F 93% 30.02 in 2.5 miles North 6.9 mph - 0.01 in Rain Light Rain
8:32 AM 33.8°F 33.8°F 100% 30.02 in 1.8 miles North 4.6 mph - 0.03 in Rain Light Rain
8:53 AM 34.0°F 33.1°F 96% 30.00 in 1.8 miles North 5.8 mph - 0.05 in Rain Light Rain
9:09 AM 33.8°F 33.8°F 100% 30.00 in 1.5 miles North 4.6 mph - 0.02 in Rain Light Rain
9:27 AM 33.8°F 33.8°F 100% 29.99 in 2.5 miles Variable 3.5 mph - 0.02 in Rain Light Rain
9:53 AM 34.0°F 34.0°F 100% 29.97 in 1.8 miles North 4.6 mph - 0.02 in   Overcast
10:38 AM 35.6°F 33.8°F 93% 29.97 in 1.2 miles Calm Calm - N/A   Overcast
10:53 AM 35.1°F 33.1°F 92% 29.95 in 1.2 miles North 3.5 mph - 0.01 in   Overcast
11:12 AM 35.6°F 33.8°F 93% 29.94 in 1.2 miles Calm Calm - N/A   Overcast
11:32 AM 35.6°F 35.6°F 100% 29.93 in 1.2 miles Calm Calm - N/A   Overcast
11:53 AM 35.1°F 35.1°F 100% 29.90 in 0.8 miles Calm Calm - N/A   Overcast
12:06 PM 35.6°F 33.8°F 93% 29.89 in 1.0 miles Calm Calm - N/A   Overcast
12:27 PM 37.4°F 37.4°F 100% 29.88 in 0.5 miles Calm Calm - N/A Fog Fog
12:53 PM 37.0°F 36.0°F 96% 29.83 in 0.5 miles Calm Calm - N/A Fog Fog
1:53 PM 39.0°F 37.9°F 96% 29.79 in 0.2 miles Calm Calm - N/A Fog Fog
2:53 PM 39.9°F 39.0°F 97% 29.77 in 0.2 miles Calm Calm - N/A Fog Fog
3:53 PM 41.0°F 41.0°F 100% 29.72 in 0.2 miles Calm Calm - 0.01 in Fog Fog
4:53 PM 43.0°F 42.1°F 97% 29.70 in 0.2 miles WSW 3.5 mph - N/A Fog Fog
5:53 PM 46.9°F 46.0°F 97% 29.68 in 0.5 miles WSW 8.1 mph - N/A Fog Fog
6:05 PM 46.4°F 46.4°F 100% 29.69 in 1.0 miles West 8.1 mph - N/A   Mist
6:31 PM 48.2°F 46.4°F 93% 29.68 in 2.5 miles West 10.4 mph - N/A   Overcast
6:38 PM 48.2°F 46.4°F 93% 29.68 in 4.0 miles West 6.9 mph 16.1 mph N/A   Overcast
6:53 PM 48.0°F 46.9°F 96% 29.66 in 4.0 miles West 6.9 mph - N/A   Overcast
7:33 PM 46.4°F 46.4°F 100% 29.67 in 2.0 miles WSW 4.6 mph - N/A   Overcast
7:46 PM 48.2°F 46.4°F 93% 29.66 in 3.0 miles West 3.5 mph - N/A   Overcast
7:53 PM 48.0°F 46.9°F 96% 29.65 in 3.0 miles WSW 3.5 mph - N/A   Overcast
8:53 PM 48.0°F 46.0°F 93% 29.65 in 4.0 miles WNW 4.6 mph - N/A   Overcast
9:34 PM 48.2°F 46.4°F 93% 29.67 in 5.0 miles West 3.5 mph - N/A   Overcast
9:53 PM 48.0°F 46.0°F 93% 29.69 in 5.0 miles NNW 8.1 mph - N/A   Mostly Cloudy
10:12 PM 48.2°F 44.6°F 87% 29.72 in 7.0 miles NW 11.5 mph 18.4 mph 0.00 in Rain Light Rain
10:33 PM 46.4°F 42.8°F 87% 29.72 in 8.0 miles NW 10.4 mph - 0.00 in   Partly Cloudy
10:53 PM 45.0°F 41.0°F 86% 29.72 in 9.0 miles NNW 8.1 mph - 0.00 in   Clear
11:53 PM 42.1°F 39.9°F 92% 29.75 in 7.0 miles West 4.6 mph - N/A   Clear
Astronomy
Sunrise:06:57 AM (EST) Moon Rise:07:20 AM (EST)2/11
Sunset:05:30 PM (EST) Moon Set:07:24 PM (EST)2/11
Moon Phase
Feb. 11 Feb. 17 Feb. 25 Mar. 04 Mar. 11

Copyright © 2014 The Weather Underground, Inc.